Weather History for KBED - March, 2013

Change the Weather History Date:

Saturday, March 9, 2013

  Actual Average Record
Temperature  
Mean Temperature 35 °F -  
Max Temperature 46 °F 42 °F 68 °F (2002)
Min Temperature 24 °F 22 °F 1 °F (2007)
Degree Days  
Heating Degree Days 30    
Moisture  
Dew Point 22 °F    
Average Humidity 67    
Maximum Humidity 96    
Minimum Humidity 35    
Precipitation  
Precipitation 0.00 in - - ()
Sea Level Pressure  
Sea Level Pressure 30.30 in    
Wind  
Wind Speed 6 mph (NE)    
Max Wind Speed 15 mph    
Max Gust Speed -    
Visibility 9 miles    
Events      
Averages and records for this station are not official NWS values.
T = Trace of Precipitation, MM = Missing Value Source: NWS Daily Summary

Daily Weather History Graph

Daily Weather History Graph

Search for Another Location

Airport or City:

Trip Planner

Search our weather history database for the weather conditions in past years. The results will help you decide how hot, cold, wet, or windy it might be!

Date:

Astronomy

Mar. 09, 2013 Rise Set
Actual Time 6:07 AM EST 5:44 PM EST
Civil Twilight 5:38 AM EST 6:12 PM EST
Nautical Twilight 5:06 AM EST 6:45 PM EST
Astronomical Twilight 4:33 AM EST 7:18 PM EST
Moon 4:31 AM EST (3/9) 3:41 PM EST (3/9)
Length of Visible Light 12h 33m
Length of Day
11h 37m
Waning Crescent, 5% of the Moon is Illuminated
Mar 9
Waning Crescent
Mar 11
New
Mar 19
First Quarter
Mar 27
Full
Apr 3
Last Quarter

Hourly Weather History & Observations

Time (EST) Temp. Windchill Dew Point Humidity Pressure Visibility Wind Dir Wind Speed Gust Speed Precip Events Conditions
12:56 AM 33.1 °F 26.1 °F 19.0 °F 56% 30.20 in 10.0 mi NNW 8.1 mph - N/A   Clear
1:56 AM 30.9 °F 26.2 °F 18.0 °F 59% 30.20 in 10.0 mi North 4.6 mph - N/A   Clear
2:56 AM 30.0 °F 24.1 °F 17.1 °F 59% 30.19 in 10.0 mi NNW 5.8 mph - N/A   Clear
3:56 AM 25.0 °F 19.3 °F 17.1 °F 72% 30.20 in 10.0 mi NNW 4.6 mph - N/A   Clear
4:56 AM 28.0 °F 21.7 °F 17.1 °F 63% 30.23 in 10.0 mi NNW 5.8 mph - N/A   Clear
5:56 AM 28.9 °F 22.8 °F 17.1 °F 61% 30.24 in 10.0 mi NNW 5.8 mph - N/A   Clear
6:56 AM 30.0 °F 24.1 °F 17.1 °F 59% 30.27 in 10.0 mi NNW 5.8 mph - N/A   Clear
7:56 AM 33.1 °F 25.5 °F 18.0 °F 54% 30.28 in 10.0 mi North 9.2 mph - N/A   Clear
8:56 AM 36.0 °F 26.7 °F 19.0 °F 50% 30.28 in 10.0 mi NNE 15.0 mph - N/A   Clear
9:56 AM 37.9 °F 30.9 °F 19.0 °F 47% 30.29 in 10.0 mi North 10.4 mph - N/A   Partly Cloudy
10:56 AM 39.9 °F 36.7 °F 19.9 °F 45% 30.29 in 10.0 mi NE 4.6 mph - N/A   Partly Cloudy
11:56 AM 42.1 °F 38.4 °F 21.9 °F 45% 30.30 in 10.0 mi East 5.8 mph - N/A   Partly Cloudy
12:56 PM 45.0 °F 41.8 °F 19.0 °F 36% 30.28 in 10.0 mi ENE 5.8 mph - N/A   Clear
1:56 PM 46.0 °F 43.9 °F 19.9 °F 35% 30.27 in 10.0 mi ENE 4.6 mph - N/A   Clear
2:56 PM 43.0 °F 37.7 °F 26.1 °F 51% 30.27 in 10.0 mi East 9.2 mph - N/A   Clear
3:56 PM 41.0 °F 34.7 °F 28.4 °F 61% 30.24 in 10.0 mi ESE 10.4 mph - N/A   Clear
4:56 PM 37.9 °F 32.1 °F 28.9 °F 70% 30.31 in 10.0 mi ESE 8.1 mph - N/A   Clear
5:56 PM 36.0 °F 31.1 °F 28.9 °F 76% 30.34 in 10.0 mi ESE 5.8 mph - N/A   Clear
6:56 PM 34.0 °F 31.0 °F 28.0 °F 79% 30.35 in 10.0 mi East 3.5 mph - N/A   Clear
7:56 PM 30.0 °F - 27.0 °F 88% 30.36 in 10.0 mi Calm Calm - N/A   Clear
8:56 PM 27.0 °F - 25.0 °F 92% 30.38 in 10.0 mi Calm Calm - N/A   Clear
9:56 PM 25.0 °F - 24.1 °F 96% 30.38 in 2.5 mi Calm Calm - N/A   Clear
10:03 PM 24.8 °F - 23.0 °F 93% 30.33 in 10.0 mi Calm Calm - N/A   Clear
10:56 PM 24.1 °F - 21.9 °F 91% 30.38 in 10.0 mi Calm Calm - N/A   Partly Cloudy
11:12 PM 24.8 °F - 21.2 °F 86% 30.34 in 1.5 mi Calm Calm - N/A   Clear
11:28 PM 24.8 °F - 19.4 °F 80% 30.34 in 7.0 mi Calm Calm - N/A   Clear
11:46 PM 24.8 °F - 21.2 °F 86% 30.34 in 1.8 mi Calm Calm - N/A   Clear
11:56 PM 24.1 °F - 21.9 °F 91% 30.40 in 1.2 mi Calm Calm - N/A   Partly Cloudy